FREGAT DEB, 46524

Orbit data source: Space-Track

FREGAT DEB, 46524 is space debris in LEO originally from a launch on Mon, 18 Jul 2011 UTC launched from the Tyuratam Missile And Space Complex (TTMTR). Debris objects in space refer to the collection of defunct objects orbiting the Earth. Examples of debris include non-operational satellites, rocket bodies, and fragments generated from explosions, collisions, or faulty payload assembly.

Loading next visibility...
FREGAT DEB details
Identifier
46524, 2011-037MC
Orbit
LEO
Last TLE update5 days ago
Origin
Flag of CISVVKO VKS (CIS)
ManufacturerLavochkin
MissionSpacecraft
Bus & MotorUnknown
MassUnknown
Launch date (UTC)
2011-07-18 (13 years ago)
Launch vehicleUnknown
Launch site
Tyuratam Missile And Space Complex (TTMTR)
Object type
Payload
Rocket body
Debris
Shape & HBRUnknown
Radar Cross SectionSmall (<0.1 m²)

Expand to show TLE details & history

TLE from 5 days ago
0 FREGAT DEB
1 46524U 11037MC  24356.42072324 -.00000769  00000-0 -18134-2 0  9990
2 46524  51.6315  17.3654 1833601 194.2061 159.9604 10.60224331167667
Epoch: 2024-12-21T10:05Z
Definitive object data (Epoch: 2024-12-21T10:05:50.487Z)
Latitude-0.00007°
Longitude135.43285°
Altitude3,909.917 km
Speed5.654 km/s
True Right ascension01h 09m 27s
True Declination0° 00' 00"
Sunlit
Object was in daylight at TLE epoch
Visualization TLE readout
Latitude-49.45283°
Longitude10.55505°
Altitude1,242.049 km
Speed7.695 km/s
Apparent Right ascension12h 28m 14s
Apparent Declination-68° 01' 20"
Sunlit
Object is in daylight
Visualization observer readout
Local Sidereal Time19:59:53
Azimuth209.162° SW
Elevation-44.973°
Doppler factor1
Orbital elements
Apogee altitude3,979.825 km
Perigee altitude769.92 km
Semi-major axis8,753.01 km
Eccentricity0.1833601
Inclination51.6315°
RAAN17.3654°
Arg. of periapsis194.2061°
True anomaly165.86835°
Mean anomaly159.9604°
Eccentric anomaly163.02721°
Mean motion2.65037 °/min
BSTAR-0.0018134
Orbital period135.83 mins
Loading maneuver chart data...
Loading historical data...
Loading historical data...
Loading historical data...
Loading historical data...
Loading historical data...
Loading historical data...
Loading historical data...

FREGAT DEB Visibility forecast

Observer location: undefined°, undefined

Span
Click to sort rows by Start time (UTC) header in descending order
Start Az.
Max El. time (UTC)
Max El. Az.
Max El.
End time (UTC)
End Az.
26 mins2024-12-26 23:37:01.676Z143.927° SSE2024-12-26 23:50:01.676Z108.913° ESE18.439°2024-12-27 00:03:01.676Z72.543° E
39 mins2024-12-27 01:52:01.676Z199.125° SSW2024-12-27 02:13:01.676Z128.076° SE41.094°2024-12-27 02:31:01.676Z55.849° ENE
38 mins2024-12-27 04:17:01.676Z244.603° WSW2024-12-27 04:39:01.676Z320.961° NNW43.77°2024-12-27 04:55:01.676Z55.685° ENE
30 mins2024-12-27 06:49:01.676Z283.979° WNW2024-12-27 07:08:01.676Z2.075° NNE38.833°2024-12-27 07:19:01.676Z73.741° E
22 mins2024-12-27 09:20:01.676Z305.31° NW2024-12-27 09:34:01.676Z29.586° NE44.054°2024-12-27 09:42:01.676Z115.953° SE
14 mins2024-12-27 11:47:01.676Z296.588° NW2024-12-27 11:55:01.676Z249.42° W27.35°2024-12-27 12:01:01.676Z188.005° SSW
|